Total_Precipitation_Accumulation
1.51 1.51 1.48 1.40 1.40 1.35 1.38 1.28 1.14 0.94 0.71 0.49 0.39 0.31 0.35 0.38 0.57 0.51 0.37 0.33 0.26 0.20 0.19 0.17 0.12 0.10 0.11 0.13 0.15 0.17 0.20 0.21 0.18 0.13 0.11 0.11 0.10 0.10
1.33 1.36 1.37 1.37 1.41 1.40 1.42 1.41 1.29 1.09 0.90 0.70 0.57 0.46 0.48 0.45 0.54 0.42 0.42 0.50 0.38 0.28 0.21 0.17 0.13 0.10 0.08 0.07 0.07 0.07 0.08 0.07 0.07 0.07 0.07 0.07 0.08 0.08
1.01 1.03 1.09 1.15 1.22 1.24 1.32 1.34 1.33 1.22 0.93 0.81 0.70 0.59 0.59 0.57 0.58 0.50 0.50 0.49 0.42 0.34 0.25 0.20 0.19 0.15 0.11 0.08 0.06 0.06 0.06 0.06 0.06 0.06 0.06 0.07 0.06 0.05
0.75 0.80 0.86 0.92 1.00 1.05 1.09 1.12 1.19 1.23 1.10 0.94 0.79 0.65 0.59 0.60 0.71 0.73 0.68 0.61 0.59 0.61 0.51 0.37 0.30 0.24 0.18 0.12 0.08 0.07 0.06 0.07 0.06 0.06 0.07 0.07 0.07 0.07
0.50 0.54 0.62 0.69 0.78 0.84 0.88 0.94 1.04 1.09 1.14 1.00 0.92 0.82 0.68 0.63 0.72 0.73 0.76 0.88 0.83 0.86 0.91 0.69 0.49 0.37 0.28 0.21 0.16 0.12 0.10 0.08 0.06 0.05 0.06 0.07 0.08 0.09
0.48 0.47 0.48 0.50 0.54 0.64 0.75 0.91 1.01 1.13 1.18 1.08 1.04 1.00 0.87 0.78 0.82 0.88 0.94 0.99 1.04 0.90 0.91 0.87 0.75 0.60 0.47 0.38 0.32 0.26 0.21 0.17 0.15 0.12 0.09 0.09 0.09 0.10
0.46 0.49 0.49 0.44 0.41 0.44 0.46 0.62 0.79 0.98 1.11 1.14 1.13 1.13 1.05 0.95 0.87 0.94 1.04 1.13 1.20 1.15 1.01 0.91 0.84 0.71 0.63 0.56 0.49 0.44 0.39 0.33 0.28 0.22 0.17 0.14 0.11 0.10
0.50 0.53 0.50 0.44 0.46 0.43 0.41 0.44 0.52 0.64 0.80 0.90 0.97 1.01 1.04 1.08 1.12 1.15 1.19 1.24 1.30 1.28 1.07 1.08 0.97 0.86 0.74 0.61 0.59 0.59 0.55 0.47 0.38 0.30 0.23 0.18 0.15 0.14
0.47 0.60 0.67 0.59 0.57 0.60 0.61 0.52 0.44 0.41 0.52 0.69 0.82 0.86 0.92 0.99 1.15 1.21 1.24 1.25 1.17 1.18 0.99 1.06 0.97 0.87 0.78 0.71 0.66 0.59 0.57 0.49 0.41 0.34 0.29 0.24 0.21 0.19
0.42 0.54 0.78 0.82 0.72 0.68 0.72 0.81 0.70 0.52 0.48 0.52 0.67 0.75 0.78 0.91 1.19 1.37 1.32 1.13 1.07 1.09 0.95 0.97 0.94 0.82 0.73 0.67 0.66 0.54 0.47 0.40 0.34 0.30 0.26 0.23 0.22 0.21
0.36 0.47 0.63 0.79 0.73 0.68 0.69 0.75 0.77 0.65 0.56 0.55 0.50 0.56 0.66 0.81 1.04 1.27 1.34 1.26 1.14 1.09 0.90 0.79 0.83 0.81 0.79 0.70 0.63 0.57 0.46 0.37 0.30 0.24 0.20 0.18 0.16 0.15
0.22 0.38 0.53 0.53 0.50 0.55 0.67 0.78 0.86 0.70 0.59 0.64 0.61 0.62 0.64 0.81 1.10 1.26 1.30 1.23 1.11 1.08 0.98 0.84 0.80 0.77 0.92 0.87 0.66 0.56 0.48 0.43 0.35 0.27 0.21 0.17 0.14 0.11
0.14 0.28 0.37 0.34 0.34 0.41 0.53 0.66 0.79 0.65 0.66 0.78 0.79 0.75 0.81 0.86 0.98 1.08 1.20 1.23 1.11 0.96 0.91 0.95 0.98 0.85 0.76 0.78 0.73 0.59 0.46 0.38 0.31 0.26 0.21 0.17 0.11 0.07
0.15 0.21 0.25 0.22 0.22 0.26 0.33 0.45 0.56 0.63 0.71 0.82 0.87 0.80 0.77 0.83 0.87 0.90 0.97 1.03 0.98 0.91 0.82 0.71 0.73 0.66 0.54 0.49 0.51 0.53 0.46 0.36 0.26 0.21 0.18 0.17 0.12 0.07
0.13 0.17 0.18 0.19 0.22 0.24 0.27 0.35 0.49 0.67 0.84 0.83 0.76 0.70 0.71 0.77 0.76 0.84 0.91 0.95 0.93 0.89 0.77 0.59 0.54 0.51 0.43 0.38 0.36 0.36 0.36 0.33 0.25 0.18 0.14 0.11 0.07 0.05
0.13 0.13 0.14 0.19 0.22 0.23 0.29 0.40 0.55 0.74 0.82 0.74 0.69 0.58 0.58 0.70 0.73 0.71 0.73 0.75 0.80 0.83 0.73 0.63 0.55 0.46 0.41 0.37 0.32 0.30 0.26 0.24 0.22 0.17 0.12 0.10 0.07 0.06
0.10 0.16 0.21 0.28 0.34 0.40 0.50 0.57 0.58 0.62 0.68 0.61 0.64 0.58 0.54 0.60 0.60 0.57 0.56 0.51 0.54 0.56 0.56 0.54 0.52 0.45 0.37 0.33 0.32 0.29 0.25 0.18 0.15 0.16 0.15 0.11 0.08 0.08
0.12 0.21 0.29 0.37 0.43 0.50 0.55 0.56 0.55 0.56 0.59 0.56 0.54 0.54 0.48 0.47 0.48 0.46 0.46 0.46 0.47 0.44 0.39 0.34 0.34 0.36 0.35 0.35 0.30 0.26 0.25 0.21 0.18 0.16 0.13 0.08 0.07 0.08
0.10 0.22 0.42 0.47 0.43 0.47 0.51 0.49 0.42 0.35 0.35 0.37 0.36 0.34 0.33 0.34 0.36 0.36 0.36 0.37 0.38 0.34 0.32 0.30 0.27 0.25 0.25 0.23 0.23 0.18 0.21 0.21 0.16 0.13 0.10 0.07 0.05 0.05
0.06 0.13 0.26 0.30 0.32 0.36 0.34 0.31 0.24 0.18 0.18 0.18 0.17 0.18 0.19 0.21 0.23 0.26 0.25 0.24 0.26 0.26 0.26 0.25 0.22 0.19 0.17 0.17 0.17 0.16 0.11 0.12 0.10 0.08 0.07 0.04 0.02 0.02
0.06 0.10 0.14 0.16 0.16 0.15 0.14 0.13 0.11 0.10 0.09 0.09 0.11 0.13 0.13 0.14 0.13 0.13 0.16 0.19 0.18 0.17 0.19 0.19 0.16 0.14 0.12 0.13 0.15 0.15 0.10 0.09 0.07 0.05 0.03 0.03 0.02 0.01
0.04 0.05 0.05 0.05 0.04 0.04 0.04 0.05 0.06 0.07 0.07 0.06 0.06 0.08 0.09 0.09 0.09 0.08 0.07 0.08 0.10 0.13 0.13 0.15 0.13 0.10 0.09 0.10 0.11 0.10 0.08 0.07 0.07 0.09 0.06 0.04 0.02 0.01
0.02 0.01 0.01 0.01 0.01 0.01 0.02 0.02 0.03 0.06 0.07 0.06 0.05 0.05 0.06 0.07 0.07 0.06 0.05 0.05 0.06 0.08 0.09 0.10 0.10 0.08 0.07 0.07 0.07 0.07 0.06 0.06 0.06 0.07 0.07 0.06 0.03 0.01